Regional Weather Roundup
Issued by NWS

Home | Current Version | Previous Version | Text Only | Print | Product List | Glossary Off
Versions: 1 2 3 4 5 6 7 8 9 10 11 12 13 14 15 16 17 18 19 20 21 22 23 24 25 26 27 28 29 30 31 32 33 34 35 36 37 38 39 40 41 42 43 44 45 46 47 48 49 50

000
ASUS43 KLSX 261510
RWRMO

WEATHER SUMMARY FOR MISSOURI
NATIONAL WEATHER SERVICE SPRINGFIELD MO
1000 AM CDT THU APR 26 2018

NOTE: "FAIR" INDICATES FEW OR NO CLOUDS BELOW 12,000 FEET WITH NO
       SIGNIFICANT WEATHER AND/OR OBSTRUCTIONS TO VISIBILITY.
       CURRENT SKY AND/OR WEATHER CONDITIONS ARE NOT AVAILABLE FOR
       CHILLICOTHE AND FARMINGTON.

MOZ001>031-035>038-043-044-053-054-261600-
...NORTHERN AND WESTERN MISSOURI...

CITY           SKY/WX    TMP DP  RH WIND       PRES   REMARKS
KANSAS CTY INT PTSUNNY   52  43  71 NW5       30.02S
KANSAS C DTWN  SUNNY     53  43  68 NW5       30.02S
LEE`S SUMMIT   MOSUNNY   54  44  69 NW5       30.03R
ST JOSEPH      CLOUDY    51  45  79 S5        30.01F
CHILLICOTHE      N/A     55  43  63 VRB3      30.00F
KIRKSVILLE     SUNNY     61  35  37 VRB3      29.98F

$$
MOZ066>068-077>081-088>096-101>105-261600-
...SOUTHWEST MISSOURI...

CITY           SKY/WX    TMP DP  RH WIND       PRES   REMARKS
SPRINGFIELD    CLOUDY    50  46  86 N10       30.00S
JOPLIN         CLOUDY    50  47  89 N7        30.04R
BRANSON        CLOUDY    50  50 100 NW8       30.00R FOG

$$
MOZ032>034-039>042-045>050-055>058-069>072-261600-
...CENTRAL MISSOURI...

CITY           SKY/WX    TMP DP  RH WIND       PRES   REMARKS
COLUMBIA       MOSUNNY   56  42  59 NE3       29.99F
JEFFERSON CITY SUNNY     54  48  80 W5        30.00S
ROLLA          CLOUDY    50  46  86 NW6       29.99R
SEDALIA        SUNNY     55  47  74 N5        30.02S
WHITEMAN AFB   PTSUNNY   53  44  72 N3        29.98S
WARRENSBURG    MOSUNNY   54  43  66 NW3       30.02S
OSAGE BEACH    CLOUDY    53  47  79 CALM      30.01S

$$
MOZ051-052-059>065-261600-
...EAST CENTRAL MISSOURI...

CITY           SKY/WX    TMP DP  RH WIND       PRES   REMARKS
ST LOUIS INTL  MOSUNNY   59  36  42 E7        29.98R
SPIRIT OF STL    N/A     60  42  51 MISG      29.97R
ST CHARLES     MOSUNNY   60  36  40 SE5       29.98R

$$
MOZ072>076-082>087-097>100-106>115-261600-
...SOUTH CENTRAL AND SOUTHEAST MISSOURI...

CITY           SKY/WX    TMP DP  RH WIND       PRES   REMARKS
CAPE GIRARDEAU CLOUDY    56  42  59 NE10      29.92R
FARMINGTON     CLOUDY    51  49  92 N5        29.97R
POPLAR BLUFF   CLOUDY    57  51  80 NE10      29.91S
WEST PLAINS    CLOUDY    52  46  80 N10G17    29.98R

$$




USA.gov is the U.S. government's official web portal to all federal, state and local government web resources and services.